CW4672 Weather Reports


Display with metric or nautical units.
time (UTC)temp
F
wind
direction
speed
MPH
gust
MPH
rain 1hr
in
rain 24hr
in
rain mn
in
humidity
%
barometer
mb
20260507051314 53 234 0.0 0.0 0.00 0.00 0.00 82 1020.9
20260507050825 53 298 0.0 0.0 0.00 0.00 0.00 81 1020.9
20260507050315 53 276 0.0 0.0 0.00 0.00 0.00 82 1021.0
20260507045824 53 259 0.0 0.0 0.00 0.00 0.00 82 1020.9
20260507045314 53 301 0.0 0.0 0.00 0.00 0.00 82 1021.0
20260507044827 53 275 0.0 0.0 0.00 0.00 0.00 82 1021.0
20260507044337 54 298 0.0 0.0 0.00 0.00 0.00 82 1021.0
20260507043826 54 242 0.0 0.0 0.00 0.00 0.00 83 1021.0
20260507043317 54 312 0.0 0.0 0.00 0.00 0.00 83 1021.0
20260507042826 54 271 0.0 0.0 0.00 0.00 0.00 83 1021.0
20260507042316 54 283 0.0 0.0 0.00 0.00 0.00 83 1020.9
20260507041825 54 238 0.0 0.0 0.00 0.00 0.00 83 1020.9
20260507041315 54 267 0.0 0.0 0.00 0.00 0.00 83 1020.9
20260507040827 54 246 0.0 0.0 0.00 0.00 0.00 83 1020.9
20260507040317 54 265 0.0 0.0 0.00 0.00 0.00 82 1020.8
20260507035832 54 232 0.0 0.0 0.00 0.00 0.00 82 1020.8
20260507035322 54 246 0.0 0.0 0.00 0.00 0.00 82 1020.7
20260507034812 54 269 0.0 0.0 0.00 0.00 0.00 82 1020.7
20260507034342 54 236 0.0 0.0 0.00 0.00 0.00 81 1020.7
20260507033851 54 244 0.0 0.0 0.00 0.00 0.00 81 1020.6
20260507033321 54 271 0.0 0.0 0.00 0.00 0.00 81 1020.6
20260507032831 54 312 0.0 1.0 0.00 0.00 0.00 81 1020.6
20260507032322 55 247 0.0 1.0 0.00 0.00 0.00 81 1020.6
20260507031813 55 283 0.0 0.0 0.00 0.00 0.00 82 1020.6
20260507031323 55 291 0.0 0.0 0.00 0.00 0.00 82 1020.5
20260507030817 55 269 0.0 0.0 0.00 0.00 0.00 81 1020.4
20260507030327 55 229 0.0 0.0 0.00 0.00 0.00 81 1020.4
20260507025818 55 250 0.0 0.0 0.00 0.00 0.00 82 1020.3
20260507025328 55 286 0.0 0.0 0.00 0.00 0.00 82 1020.4
20260507024819 55 243 0.0 0.0 0.00 0.00 0.00 82 1020.3
20260507024348 56 277 0.0 0.0 0.00 0.00 0.00 81 1020.3
20260507023817 56 233 0.0 0.0 0.00 0.00 0.00 81 1020.2
20260507023327 56 214 0.0 0.0 0.00 0.00 0.00 81 1020.2
20260507022816 56 221 0.0 0.0 0.00 0.00 0.00 81 1020.1
20260507022325 56 254 0.0 1.0 0.00 0.00 0.00 80 1020.1
20260507021820 56 220 0.0 1.0 0.00 0.00 0.00 80 1020.1
20260507021329 56 246 0.0 0.0 0.00 0.00 0.00 80 1020.2
20260507020819 56 262 0.0 0.0 0.00 0.00 0.00 80 1020.2
20260507020329 56 277 0.0 0.0 0.00 0.00 0.00 79 1020.2
20260507015819 57 215 0.0 0.0 0.00 0.00 0.00 79 1020.2
20260507015329 57 226 0.0 0.0 0.00 0.00 0.00 78 1020.3
20260507014820 57 275 0.0 6.0 0.00 0.00 0.00 78 1020.2
20260507014350 57 273 0.0 6.0 0.00 0.00 0.00 78 1020.2
20260507013820 57 273 0.0 0.0 0.00 0.00 0.00 78 1020.2
20260507013334 57 243 0.0 0.0 0.00 0.00 0.00 79 1020.1
20260507012823 58 300 0.0 0.0 0.00 0.00 0.00 78 1020.1
20260507012313 58 250 0.0 0.0 0.00 0.00 0.00 77 1020.0
20260507011824 58 274 0.0 0.0 0.00 0.00 0.00 78 1020.0
20260507011314 58 271 0.0 0.0 0.00 0.00 0.00 77 1020.0
20260507010824 58 5 0.0 0.0 0.00 0.00 0.00 78 1020.0
20260507010315 58 222 0.0 0.0 0.00 0.00 0.00 77 1020.1
20260507005825 59 303 0.0 5.0 0.00 0.00 0.00 76 1020.1
20260507005336 59 234 0.0 5.0 0.00 0.00 0.00 76 1020.0
20260507004826 59 278 0.0 0.0 0.00 0.00 0.00 76 1020.1
20260507004316 59 257 0.0 0.0 0.00 0.00 0.00 77 1020.2
20260507003831 59 306 0.0 0.0 0.00 0.00 0.00 76 1020.2
20260507003321 59 240 0.0 0.0 0.00 0.00 0.00 77 1020.1
20260507002830 59 242 0.0 0.0 0.00 0.00 0.00 78 1020.2
20260507002321 59 261 0.0 0.0 0.00 0.00 0.00 77 1020.2
20260507001832 59 275 0.0 0.0 0.00 0.00 0.00 76 1020.2
20260507001322 59 228 0.0 0.0 0.00 0.00 0.00 76 1020.2
20260507000813 60 271 0.0 1.0 0.00 0.00 0.00 78 1020.2
20260507000324 60 205 0.0 1.0 0.00 0.00 0.00 78 1020.2
20260506235820 60 269 0.0 0.0 0.00 0.00 0.00 78 1020.2
20260506235331 60 311 0.0 0.0 0.00 0.00 0.00 76 1020.2
20260506234821 60 332 0.0 0.0 0.00 0.00 0.00 77 1020.1
20260506234332 60 273 0.0 0.0 0.00 0.00 0.00 77 1020.1
20260506233822 60 261 0.0 0.0 0.00 0.00 0.00 76 1020.1
20260506233314 60 277 0.0 0.0 0.00 0.00 0.00 77 1020.1
20260506232823 60 238 0.0 0.0 0.00 0.00 0.00 76 1020.1
20260506232313 61 268 0.0 1.0 0.00 0.00 0.00 77 1020.1
20260506231824 61 350 0.0 1.0 0.00 0.00 0.00 78 1020.1
20260506231313 60 301 0.0 0.0 0.00 0.00 0.00 78 1020.1
20260506230843 60 235 0.0 0.0 0.00 0.00 0.00 75 1020.0
20260506230352 60 254 0.0 0.0 0.00 0.00 0.00 75 1020.0
20260506225821 60 288 0.0 0.0 0.00 0.00 0.00 76 1020.0
20260506225336 60 309 0.0 0.0 0.00 0.00 0.00 76 1020.0
20260506224824 60 240 0.0 0.0 0.00 0.00 0.00 75 1020.1
20260506224315 60 306 0.0 0.0 0.00 0.00 0.00 77 1020.1
20260506223846 60 270 0.0 0.0 0.00 0.00 0.00 76 1020.2
20260506223334 60 209 0.0 0.0 0.00 0.00 0.00 76 1020.2
20260506222823 60 222 0.0 0.0 0.00 0.00 0.00 76 1020.2
20260506222332 60 194 0.0 0.0 0.00 0.00 0.00 77 1020.2
20260506221821 61 228 0.0 0.0 0.00 0.00 0.00 77 1020.3
20260506221350 61 240 0.0 0.0 0.00 0.00 0.00 76 1020.3
20260506220819 61 211 0.0 0.0 0.00 0.00 0.00 78 1020.4
20260506220328 61 219 0.0 0.0 0.00 0.00 0.00 79 1020.4
20260506215819 60 218 0.0 0.0 0.00 0.00 0.00 77 1020.4
20260506215312 61 273 0.0 0.0 0.00 0.00 0.00 77 1020.4
20260506214823 60 273 0.0 0.0 0.00 0.00 0.00 75 1020.4
20260506214313 60 339 0.0 0.0 0.00 0.00 0.00 76 1020.4
20260506213823 60 179 0.0 0.0 0.00 0.00 0.00 78 1020.3
20260506213313 60 204 0.0 0.0 0.00 0.00 0.00 79 1020.4
20260506212824 60 244 0.0 0.0 0.00 0.00 0.00 80 1020.3
20260506212334 60 229 0.0 0.0 0.00 0.00 0.00 80 1020.4
20260506211843 60 254 0.0 0.0 0.00 0.00 0.00 79 1020.4
20260506211312 60 234 0.0 0.0 0.00 0.00 0.00 80 1020.4
20260506210822 59 231 0.0 0.0 0.00 0.00 0.00 80 1020.4
20260506210315 59 223 0.0 0.0 0.00 0.00 0.00 80 1020.4
20260506205825 59 246 0.0 0.0 0.00 0.00 0.00 80 1020.4
20260506205316 59 266 0.0 0.0 0.00 0.00 0.00 80 1020.4
20260506204826 59 278 0.0 0.0 0.00 0.00 0.00 81 1020.4
20260506204315 59 249 0.0 0.0 0.00 0.00 0.00 81 1020.4
20260506203825 58 296 0.0 0.0 0.00 0.00 0.00 82 1020.4
20260506203314 58 257 0.0 0.0 0.00 0.00 0.00 83 1020.5
20260506202824 58 247 0.0 0.0 0.00 0.00 0.00 82 1020.4
20260506202315 58 233 0.0 0.0 0.00 0.00 0.00 83 1020.4
20260506201825 58 211 0.0 0.0 0.00 0.00 0.00 83 1020.4
20260506201318 58 259 0.0 0.0 0.00 0.00 0.00 82 1020.4
20260506200828 57 259 0.0 0.0 0.00 0.00 0.00 83 1020.4
20260506200338 57 215 0.0 0.0 0.00 0.00 0.00 83 1020.3
20260506195827 57 242 0.0 0.0 0.00 0.00 0.00 84 1020.4
20260506195316 57 232 0.0 0.0 0.00 0.00 0.00 84 1020.4
20260506194826 57 252 0.0 0.0 0.00 0.00 0.00 84 1020.3
20260506194316 57 186 0.0 0.0 0.00 0.00 0.00 86 1020.3
20260506193846 56 268 0.0 0.0 0.00 0.00 0.00 86 1020.3
20260506193315 56 5 0.0 0.0 0.00 0.00 0.00 88 1020.4
20260506192825 56 338 0.0 0.0 0.00 0.00 0.00 88 1020.5
20260506192314 56 333 0.0 0.0 0.00 0.00 0.00 89 1020.4
20260506191824 55 311 0.0 0.0 0.00 0.00 0.00 88 1020.4
20260506191320 55 307 0.0 0.0 0.00 0.00 0.00 88 1020.6
20260506190830 55 263 0.0 0.0 0.00 0.00 0.00 89 1020.6
20260506190319 55 263 0.0 0.0 0.00 0.00 0.00 89 1020.5
20260506185848 55 303 0.0 0.0 0.00 0.00 0.00 88 1020.5
20260506185318 55 301 0.0 0.0 0.00 0.00 0.00 89 1020.4
20260506184828 55 267 0.0 0.0 0.00 0.00 0.00 90 1020.4
20260506184318 55 215 0.0 0.0 0.00 0.00 0.00 89 1020.2
20260506183848 55 249 0.0 0.0 0.00 0.00 0.00 90 1020.3
20260506183317 54 218 0.0 0.0 0.00 0.00 0.00 90 1020.3
20260506182826 55 195 0.0 0.0 0.00 0.00 0.00 91 1020.2
20260506182320 54 207 0.0 0.0 0.00 0.00 0.00 90 1020.3
20260506181831 54 269 0.0 0.0 0.00 0.00 0.00 90 1020.4
20260506181340 54 222 0.0 0.0 0.00 0.00 0.00 92 1020.4
20260506180830 54 252 0.0 0.0 0.00 0.00 0.00 92 1020.3
20260506180320 54 229 0.0 0.0 0.00 0.00 0.00 92 1020.2
20260506175830 54 193 0.0 0.0 0.00 0.00 0.00 92 1020.1
20260506175321 54 239 0.0 0.0 0.00 0.00 0.00 92 1020.2
20260506174851 54 219 0.0 0.0 0.00 0.00 0.00 92 1020.2
20260506174321 54 239 0.0 0.0 0.00 0.00 0.00 92 1020.3
20260506173833 54 245 0.0 0.0 0.00 0.00 0.00 92 1020.2
20260506173323 54 265 0.0 0.0 0.00 0.00 0.00 92 1020.2
20260506172816 54 239 0.0 0.0 0.00 0.00 0.00 92 1020.1
20260506172326 54 255 0.0 0.0 0.00 0.00 0.00 92 1020.2
20260506171817 54 232 0.0 0.0 0.00 0.00 0.00 92 1020.2
20260506171328 54 256 0.0 0.0 0.00 0.00 0.00 92 1020.2
20260506170819 53 259 0.0 0.0 0.00 0.00 0.00 92 1020.1
20260506170328 53 240 0.0 0.0 0.00 0.00 0.00 92 1020.1
20260506165818 54 237 0.0 0.0 0.00 0.00 0.00 93 1020.0
20260506165328 54 249 0.0 0.0 0.00 0.00 0.00 93 1020.1
20260506164822 54 227 0.0 0.0 0.00 0.00 0.00 93 1019.9
20260506164312 54 227 0.0 0.0 0.00 0.00 0.00 94 1019.8
20260506163822 54 276 0.0 0.0 0.00 0.00 0.00 94 1019.8
20260506163312 54 199 0.0 0.0 0.00 0.00 0.00 94 1019.7
20260506162822 53 187 0.0 0.0 0.00 0.00 0.00 94 1019.8
20260506162333 53 231 0.0 0.0 0.00 0.00 0.00 95 1019.8
20260506161822 53 231 0.0 0.0 0.00 0.00 0.00 95 1019.7
20260506161312 53 231 0.0 0.0 0.00 0.00 0.00 95 1019.6
20260506160823 52 231 0.0 0.0 0.00 0.00 0.00 94 1019.7
20260506160314 52 231 0.0 0.0 0.00 0.00 0.00 94 1019.7
20260506155830 52 231 0.0 0.0 0.00 0.00 0.00 95 1019.7
20260506155318 52 231 0.0 0.0 0.00 0.00 0.00 95 1019.6
20260506154828 52 231 0.0 0.0 0.00 0.00 0.00 95 1019.6
20260506154319 52 231 0.0 0.0 0.00 0.00 0.00 95 1019.6
20260506153830 52 231 0.0 0.0 0.00 0.00 0.00 95 1019.5
20260506153321 52 231 0.0 0.0 0.00 0.00 0.00 95 1019.6
20260506152812 52 231 0.0 0.0 0.00 0.00 0.00 95 1019.6
20260506152323 52 231 0.0 0.0 0.00 0.00 0.00 95 1019.6
20260506151816 52 231 0.0 0.0 0.00 0.00 0.00 94 1019.6
20260506151347 52 257 0.0 0.0 0.00 0.00 0.00 95 1019.7
20260506150818 52 257 0.0 0.0 0.00 0.00 0.00 95 1019.6
20260506150328 52 257 0.0 0.0 0.00 0.00 0.00 95 1019.6
20260506145817 52 257 0.0 0.0 0.00 0.00 0.00 95 1019.6
20260506145328 52 257 0.0 0.0 0.00 0.00 0.00 95 1019.8
20260506144838 52 257 0.0 0.0 0.00 0.00 0.00 95 1019.5
20260506144327 52 257 0.0 0.0 0.00 0.00 0.00 95 1019.1
20260506143819 52 257 0.0 0.0 0.00 0.00 0.00 95 1019.0
20260506143330 52 257 0.0 0.0 0.00 0.00 0.00 95 1019.1
20260506142820 52 257 0.0 0.0 0.00 0.00 0.00 95 1019.2
20260506142314 52 257 0.0 0.0 0.00 0.00 0.00 95 1019.2
20260506141825 52 257 0.0 0.0 0.00 0.00 0.00 94 1019.1
20260506141315 52 257 0.0 0.0 0.00 0.00 0.00 94 1019.3
20260506140826 52 257 0.0 0.0 0.00 0.00 0.00 94 1019.3
20260506140315 52 257 0.0 0.0 0.00 0.00 0.00 94 1019.2
20260506135825 51 257 0.0 0.0 0.00 0.00 0.00 94 1019.4
20260506135314 51 257 0.0 0.0 0.00 0.00 0.00 94 1019.4
20260506134825 51 257 0.0 0.0 0.00 0.00 0.00 94 1019.4
20260506134314 51 257 0.0 0.0 0.00 0.00 0.00 94 1019.3
20260506133824 51 257 0.0 0.0 0.00 0.00 0.00 94 1019.2
20260506133319 52 257 0.0 0.0 0.00 0.00 0.00 94 1019.3
20260506132831 52 257 0.0 0.0 0.00 0.00 0.00 94 1019.3
20260506132341 52 257 0.0 0.0 0.00 0.00 0.00 94 1019.3
20260506131830 52 257 0.0 0.0 0.00 0.00 0.00 94 1019.0
20260506131319 52 257 0.0 0.0 0.00 0.00 0.00 94 1019.0
20260506130828 52 257 0.0 0.0 0.00 0.00 0.00 94 1019.0
20260506130318 52 257 0.0 0.0 0.00 0.00 0.00 94 1018.8
20260506125830 52 257 0.0 0.0 0.00 0.00 0.00 94 1018.9
20260506125320 52 257 0.0 0.0 0.00 0.00 0.00 94 1018.9
20260506124850 52 257 0.0 0.0 0.00 0.00 0.00 94 1018.9
20260506124320 52 257 0.0 0.0 0.00 0.00 0.00 94 1018.8
20260506123814 52 257 0.0 0.0 0.00 0.00 0.00 94 1018.7
20260506123324 52 257 0.0 0.0 0.00 0.00 0.00 94 1018.7
20260506122815 52 257 0.0 0.0 0.00 0.00 0.00 94 1018.5
20260506122326 52 257 0.0 0.0 0.00 0.00 0.00 93 1018.6
20260506121816 52 257 0.0 0.0 0.00 0.00 0.00 93 1018.5
20260506121326 52 257 0.0 0.0 0.00 0.00 0.00 93 1018.4
20260506120815 52 257 0.0 0.0 0.00 0.00 0.00 93 1018.5
20260506120325 52 257 0.0 0.0 0.00 0.00 0.00 93 1018.4
20260506115816 52 257 0.0 0.0 0.00 0.00 0.00 93 1018.4
20260506115326 52 257 0.0 0.0 0.00 0.00 0.00 93 1018.4
20260506114821 52 257 0.0 0.0 0.00 0.00 0.00 93 1018.3
20260506114314 52 257 0.0 0.0 0.00 0.00 0.00 93 1018.3
20260506113845 52 257 0.0 0.0 0.00 0.00 0.00 93 1018.3
20260506113336 52 257 0.0 0.0 0.00 0.00 0.00 92 1018.3
20260506112826 52 257 0.0 0.0 0.00 0.00 0.00 92 1018.3
20260506112316 52 257 0.0 0.0 0.00 0.00 0.00 92 1018.3
20260506111826 52 257 0.0 0.0 0.00 0.00 0.00 92 1018.3
20260506111316 52 257 0.0 0.0 0.00 0.00 0.00 92 1018.3
20260506110827 52 257 0.0 0.0 0.00 0.00 0.00 92 1018.3
20260506110316 52 257 0.0 0.0 0.00 0.00 0.00 92 1018.3
20260506105827 52 257 0.0 0.0 0.00 0.00 0.00 92 1018.2
20260506105322 52 257 0.0 0.0 0.00 0.00 0.00 92 1018.2
20260506104812 52 257 0.0 0.0 0.00 0.00 0.00 92 1018.2
20260506104342 52 257 0.0 0.0 0.00 0.00 0.00 92 1018.1
20260506103831 52 233 0.0 0.0 0.00 0.00 0.00 91 1018.0
20260506103320 53 248 0.0 0.0 0.00 0.00 0.00 91 1018.0
20260506102830 53 248 0.0 0.0 0.00 0.00 0.00 91 1017.9
20260506102320 53 248 0.0 0.0 0.00 0.00 0.00 91 1017.9
20260506101830 53 275 0.0 0.0 0.00 0.00 0.00 90 1017.9
20260506101320 53 331 0.0 0.0 0.00 0.00 0.00 90 1017.9
20260506100813 53 331 0.0 0.0 0.00 0.00 0.00 90 1017.8
20260506100324 53 257 0.0 0.0 0.00 0.00 0.00 90 1017.7
20260506095813 53 232 0.0 0.0 0.00 0.00 0.00 90 1017.7
20260506095344 53 255 0.0 0.0 0.00 0.00 0.00 90 1017.7
20260506094833 53 255 0.0 0.0 0.00 0.00 0.00 90 1017.7
20260506094322 53 255 0.0 0.0 0.00 0.00 0.00 90 1017.6
20260506093812 53 255 0.0 0.0 0.00 0.00 0.00 90 1017.6
20260506093342 53 260 0.0 0.0 0.00 0.00 0.00 91 1017.6
20260506092812 53 260 0.0 0.0 0.00 0.00 0.00 91 1017.6
20260506092323 53 260 0.0 0.0 0.00 0.00 0.00 92 1017.6
20260506091813 53 260 0.0 0.0 0.00 0.00 0.00 92 1017.6
20260506091326 53 260 0.0 0.0 0.00 0.00 0.00 92 1017.6
20260506090815 53 260 0.0 0.0 0.00 0.00 0.00 92 1017.5
20260506090325 53 260 0.0 0.0 0.00 0.00 0.00 92 1017.4
20260506085835 53 260 0.0 0.0 0.00 0.00 0.00 92 1017.4
20260506085324 53 260 0.0 0.0 0.00 0.00 0.00 93 1017.4
20260506084814 53 260 0.0 0.0 0.00 0.00 0.00 94 1017.4
20260506084325 52 260 0.0 0.0 0.00 0.00 0.00 94 1017.4
20260506083816 52 273 0.0 0.0 0.00 0.00 0.00 94 1017.4
20260506083327 52 55 0.0 0.0 0.00 0.00 0.00 95 1017.3
20260506082823 52 55 0.0 0.0 0.00 0.00 0.00 95 1017.2
20260506082313 52 55 0.0 0.0 0.00 0.00 0.00 95 1017.3
20260506081824 52 55 0.0 0.0 0.00 0.00 0.00 95 1017.2
20260506081314 52 55 0.0 0.0 0.00 0.00 0.00 95 1017.1
20260506080824 52 55 0.0 0.0 0.00 0.00 0.00 95 1017.0
20260506080334 52 55 0.0 0.0 0.00 0.00 0.00 95 1017.0
20260506073320 52 55 0.0 0.0 0.00 0.00 0.00 95 1016.8
20260506072831 52 55 0.0 0.0 0.00 0.00 0.00 95 1016.8
20260506072322 52 10 0.0 0.0 0.00 0.00 0.00 95 1016.7
20260506071852 52 10 0.0 0.0 0.00 0.00 0.00 95 1016.8
20260506071321 52 10 0.0 0.0 0.00 0.00 0.00 95 1016.7
20260506070832 52 10 0.0 0.0 0.00 0.00 0.00 95 1016.7
20260506070321 52 10 0.0 0.0 0.00 0.00 0.00 95 1016.7
20260506062324 51 10 0.0 0.0 0.00 0.00 0.00 95 1016.5
20260506061854 51 10 0.0 0.0 0.00 0.00 0.00 95 1016.5
20260506061321 51 55 0.0 0.0 0.00 0.00 0.00 95 1016.4
20260506060812 50 55 0.0 0.0 0.00 0.00 0.00 94 1016.4
20260506060344 50 321 0.0 0.0 0.00 0.00 0.00 94 1016.4
20260506051344 50 321 0.0 0.0 0.00 0.00 0.00 91 1016.2